Meteo Giornale » Osservazioni meteo Repubblica Ceca » Kbely

ore: 12:30 - Osservazioni Meteo Kbely
Lat. 50° 7' N Lon. 14° 32' E Alt. 286 metri s.l.m.

coperto Europe/Prague

0 °C

Coperto

Temp. 24 Ore

-1 °C

1 °C

Sud

7.4 Km/h

Dew point -2 °C

Umidità 86 %

Visibilità  10 Km

Il sole sorge alle ore 07:29

Il sole tramonta alle ore 16:08

Data e Ora Cielo e Fenomeni T °C DP °C Um. % Pres. hPa Vis. km Vento km/h
Oggi h: 12:30 coperto Coperto 0 -2 86 1023 10 S 7.4
Oggi h: 12:00 coperto Coperto 0 -2 86 1023 10 S 9.3
Oggi h: 11:30 coperto Coperto -0 -2 86 1023 10 SE 7.4
Oggi h: 11:00 coperto Coperto 0 -1 92 1023 10 S 11.1
Oggi h: 10:30 coperto Coperto 0 -1 92 1024 10 SE 9.3
Oggi h: 10:00 coperto Coperto 0 -2 86 1023 10 S/SE 11.1
Oggi h: 09:30 coperto Coperto 0 -1 92 1023 7 S/SE 9.3
Oggi h: 09:00 coperto Coperto -0 -2 86 1023 6 S 7.4
Oggi h: 08:30 coperto Coperto -0 -2 86 1023 6 S/SE 7.4
Oggi h: 08:00 foschia Foschia -0 -1 92 1023 5 S 9.3
Oggi h: 07:30 foschia Foschia -0 -1 92 1023 5 SE 9.3
Oggi h: 07:00 coperto Coperto -0 -1 92 1023 10 SE 11.1
Oggi h: 06:30 coperto Coperto -0 -1 92 1023 10 S 9.3
Oggi h: 06:00 coperto Coperto -0 -1 92 1023 9 SE 9.3
Oggi h: 04:00 foschia Foschia -1 -1 100 1023 3 SE 11.1
Oggi h: 03:30 foschia Foschia -1 -1 100 1023 3 E/SE 9.3
Oggi h: 03:00 foschia Foschia -0 -1 92 1023 3 S 7.4
Oggi h: 02:30 foschia Foschia -0 -1 92 1023 2 E/SE 9.3
Oggi h: 02:00 foschia Foschia -0 -0 100 1024 2 SE 7.4
Oggi h: 01:30 foschia Foschia -0 -0 100 1024 2 S/SE 7.4
Oggi h: 01:00 foschia Foschia -0 -0 100 1024 2 N 3.7
Oggi h: 00:30 foschia Foschia -0 -0 100 1024 2 N 3.7
Oggi h: 00:00 foschia Foschia -0 -0 100 1024 2 N 5.5
Ieri h: 23:30 foschia Foschia -0 -0 100 1024 2 S 7.4
Ieri h: 23:00 foschia Foschia -0 -0 100 1024 2 S 7.4
Ieri h: 22:30 foschia Foschia -0 -0 100 1024 2 S 9.3
Ieri h: 22:00 nebbia Nebbia Congelantesi -0 -0 100 1025 0.2 S/SE 7.4
Ieri h: 21:30 nebbia Nebbia Congelantesi -0 -0 100 1025 0.15 N 1.8
Ieri h: 21:00 nebbia Nebbia Congelantesi -0 -0 100 1025 0.1 N 0
Ieri h: 20:30 nebbia Nebbia Congelantesi -0 -1 92 1025 0.15 N 0
Ieri h: 20:00 nebbia Nebbia Congelantesi -0 -1 92 1025 0.4 N 0
Ieri h: 19:30 nebbia Nebbia Congelantesi -0 -1 92 1025 0.1 N 3.7
Ieri h: 19:00 nebbia Nebbia Congelantesi -0 -1 92 1025 0.1 N 3.7
Ieri h: 18:30 nebbia Nebbia Congelantesi -0 -1 92 1025 0.1 N 3.7
Ieri h: 18:00 nebbia Nebbia Congelantesi -0 -1 92 1025 0.1 N 3.7
Ieri h: 17:00 nebbia Nebbia Congelantesi -0 -1 92 1025 0.1 N 5.5
Ieri h: 16:00 nebbia Nebbia Congelantesi -0 -1 92 1026 0.1 N 3.7
Ieri h: 15:30 nebbia Nebbia Congelantesi -1 -1 100 1026 0.1 E 7.4
Ieri h: 15:00 nebbia Nebbia Congelantesi -1 -1 100 1026 0.1 E/NE 7.4
Ieri h: 14:30 nebbia Nebbia Congelantesi -1 -1 100 1027 0.1 N/NE 7.4
Ieri h: 14:00 nebbia Nebbia Congelantesi -1 -1 100 1027 0.2 N/NE 7.4
Ieri h: 13:30 nebbia Nebbia Congelantesi -1 -1 100 1027 0.2 N/NE 7.4
Ieri h: 13:00 nebbia Nebbia Congelantesi -1 -2 92 1027 0.2 NE 9.3
Ieri h: 12:30 nebbia Nebbia Congelantesi -0 -1 92 1028 0.4 N/NE 7.4
Ieri h: 12:12 nebbia Nebbia 0 0 100 1028 0.7 N 5.5
Ieri h: 12:03 foschia Foschia 1 1 100 1028 2 N 3.7
Ieri h: 12:00 foschia Foschia 0 0 100 1028 3 N 5.5
Ieri h: 11:40 foschia Foschia 1 1 100 1028 3 N 5.5